Home   Weather   Limburg an der Lahn   Past weeks

Flag for Germany Past Weather in Limburg an der Lahn, Hesse, Germany — Yesterday and Last 2 Weeks

Now
29 °F

Clear.


Feels Like: 23 °F
Forecast: 21 / 33 °F
Wind: 6 mph from Northeast

Location: Wiesbaden Airport

Current Time: Dec 5, 2016 at 1:44:50 am

Latest Report: Dec 5, 2016 at 12:58 am


Visibility: N/A

Pressure: 30.38 "Hg

Humidity: 67%

Dew Point: 19 °F

Location of Limburg an der LahnLocation

Past Weather in Limburg an der Lahn — Graph

°F

Limburg an der Lahn Temperature Yesterday

Maximum temperature yesterday: 37 °F (at 1:58 pm)
Minimum temperature yesterday: 25 °F (at 2:58 am)
Average temperature yesterday: 31 °F

High & Low Weather Summary for the Past Weeks

 TemperatureHumidityPressure
High57 °F (Nov 24, 11:58 am)100% (Nov 22, 6:58 am)30.59 "Hg (Nov 22, 6:58 am)
Low22 °F (Nov 30, 6:58 am)49% (Nov 28, 3:58 pm)29.56 "Hg (Nov 20, 12:58 pm)
Average41 °F76%30.15 "Hg
* Reported Nov 19 11:58 pm — Dec 4 11:58 pm, Limburg an der Lahn, Weather by CustomWeather, © 2016

Note: Actual official high and low records may vary slightly from our data, if they occured in-between our weather recording intervals... More about our weather records

Advertising

Limburg an der Lahn Weather History for the Previous 24 Hours

Scroll right to see more
 ConditionsComfort  
Time TempWeatherWind HumidityBarometerVisibility
11:58 pm
Sun, Dec 4
28 °FClear.5 mph69%30.39 "HgN/A
10:58 pm30 °FClear.5 mph64%30.40 "HgN/A
9:58 pm30 °FClear.7 mph64%30.39 "HgN/A
8:58 pm32 °FClear.3 mph64%30.40 "HgN/A
7:58 pm32 °FClear.5 mph64%30.40 "HgN/A
6:58 pm33 °FClear.8 mph66%30.40 "HgN/A
5:58 pm32 °FClear.7 mph69%30.39 "HgN/A
4:58 pm34 °FClear.6 mph65%30.37 "HgN/A
3:58 pm36 °FSunny.7 mph61%30.36 "HgN/A
2:58 pm37 °FSunny.9 mph60%30.37 "HgN/A
1:58 pm37 °FSunny.12 mph60%30.37 "HgN/A
12:58 pm35 °FSunny.10 mph62%30.39 "HgN/A
11:58 am36 °FSunny.14 mph60%30.39 "HgN/A
10:58 am34 °FSunny.12 mph65%30.40 "HgN/A
9:58 am32 °FSunny.6 mph75%30.40 "HgN/A
8:58 am27 °FSunny.3 mph80%30.40 "HgN/A
7:58 am26 °FClear.6 mph82%30.38 "HgN/A
6:58 am26 °FClear.3 mph85%30.36 "HgN/A
5:58 am25 °FClear.6 mph86%30.36 "HgN/A
4:58 am25 °FClear.3 mph86%30.36 "HgN/A
3:58 am25 °FClear.No wind89%30.36 "HgN/A
2:58 am25 °FClear.No wind86%30.36 "HgN/A
1:58 am31 °FClear.No wind73%30.35 "HgN/A
Weather by CustomWeather, © 2016

See weather overviewHow to use our weather pages